Regional Weather Roundup
Issued by NWS Grand Forks, ND

Home | Current Version | Previous Version | Text Only | Print | Product List | Glossary On
Versions: 1 2 3 4 5 6 7 8 9 10 11 12 13 14 15 16 17 18 19 20 21 22 23 24 25 26 27 28 29 30 31 32 33 34 35 36 37 38 39 40 41 42 43 44 45 46 47 48 49 50
802
ASUS43 KFGF 092310
RWRFGF
PRAIRIE TO PINES  WEATHER ROUNDUP
NATIONAL WEATHER SERVICE EASTERN NORTH DAKOTA/GRAND FORKS ND
500 PM CST TUE FEB 09 2016

 **SATELLITE DATA USED TO AUGMENT SKY COVER AT AUTOMATED STATIONS**
 *****  WEATHER ACROSS EASTERN NORTH DAKOTA  *****

CITY           SKY/WX    TMP DP  RH WIND       PRES   REMARKS
GRAND FORKS    CLOUDY    11   2  67 N13       30.29R WCI  -4
GRAND FRKS AFB CLOUDY    10   1  67 N10       30.28S WCI  -3
DEVILS LAKE    CLEAR     13   7  77 NE12      30.22S WCI  -1
FARGO          CLOUDY    13   5  70 N12       30.26S WCI  -1
WAHPETON ARPT  CLOUDY    14   5  67 N13       30.25S WCI   0
$$

 ***** WEATHER ACROSS CENTRAL AND WESTERN NORTH DAKOTA  *****

CITY           SKY/WX    TMP DP  RH WIND       PRES   REMARKS
BISMARCK       CLOUDY    40  18  41 NW5       30.14S
MINOT          CLOUDY    37  17  44 N9        30.14R
JAMESTOWN      CLOUDY    22  10  60 E8        30.18S WCI  12
MINOT AFB      CLOUDY    32  22  68 E10       30.13S WCI  23
GARRISON         N/A     35  19  52 NE7       30.13R
WILLISTON      CLOUDY    38  23  55 SE3       30.10F
DICKINSON      CLOUDY    39  20  46 N6        30.08F
HETTINGER      CLOUDY    43  24  47 NW8       30.11S
$$

 *****  OTHER AIRPORT OBSERVATIONS IN OUR AREA  *****

CITY           SKY/WX    TMP DP  RH WIND       PRES   REMARKS
WALHALLA       FAIR       9   1  72 NE8       30.31R WCI  -4
GRAFTON AIRPOR MOCLDY     7   1  78 N12       30.32R WCI  -9
VALLEY CITY AR MOCLDY    16   9  73 NE8       30.23S WCI   5
CANDO          NOT AVBL
CAVALIER APRT  CLOUDY     7   1  78 N10       30.31R WCI  -8
GWINNER        MOCLDY    21  12  68 NE8       30.22F WCI  12
SHEYENNE NWR     N/A     16   7  67 N7        29.95  WCI   6
ROLLA          CLOUDY    10   7  85 E8        30.21S WCI  -1
 ***** THE ABOVE OBSERVATIONS ARE NON NWS ARE NOT QUALITY
       CONTROLLED AND MAY MIS-REPORT RAIN FOR SNOW...
$$

  *****  WEATHER ACROSS NORTHERN MINNESOTA  *****

CITY           SKY/WX    TMP DP  RH WIND       PRES   REMARKS
FLAG ISLAND    CLEAR      5  -4  66 NW10      30.21S WCI -10
WARROAD        CLEAR      9  -4  56 NW6       30.22S WCI  -1
ROSEAU         CLEAR      7  -2  66 W6        30.22F WCI  -3
HALLOCK        CLOUDY     3  -2  78 N10       30.29S WCI -12
THF RVR FALLS  CLEAR      7  -2  66 NW9       30.24S WCI  -7
BAUDETTE       CLEAR      4  -7  60 NW9       30.18S WCI -10
WASKISH        CLEAR      7  -4  61 NW7       30.19R WCI  -5
CROOKSTON      PTCLDY     7   1  78 N13       30.28S WCI  -9
GREENBUSH NDAW   N/A      1  -6  71 NW10        N/A  WCI -14
$$
  *****  WEATHER ACROSS CENTRAL AND WEST MINNESOTA  *****

CITY           SKY/WX    TMP DP  RH WIND       PRES   REMARKS
FOSSTON        CLEAR      3  -4  72 NW8       30.22S WCI -10
BEMIDJI        CLEAR      6  -2  68 NW14      30.17R WCI -10
PARK RAPIDS    CLEAR     11  -4  51 N14       30.14R WCI  -5
ELBOW LAKE     CLOUDY    12   5  73 NW13G18   30.20F HAZE    WCI  -3
WADENA         CLEAR      9   1  72 NW9       30.16R WCI  -5
DETROIT LAKES  CLOUDY    10   5  79 NW9       30.21R WCI  -2
MOORHEAD       CLOUDY    12   7  79 N12       30.26S WCI  -2
FERGUS FALLS   CLOUDY    12   5  73 N15       30.25S WCI  -4
MORRIS MN      CLOUDY    16   7  67 NW20      30.20S WCI  -1
STAPLES        CLEAR     12  -2  52 NW10G17   30.15R WCI  -1
$$
  *****  WEATHER ELSEWHERE ACROSS MINNESOTA  *****

CITY           SKY/WX    TMP DP  RH WIND       PRES   REMARKS
DULUTH         PTCLDY     8  -5  55 NW12G24   30.03R WCI  -7
INTRNTL FALLS  CLEAR      5  -6  60 N16       30.15R WCI -14
ELY            MOCLDY     3  -2  78 NW12G20   30.07R WCI -13
CLOQUET        CLEAR      9  -6  52 NW17G24   30.07R WCI -10
WHEATON        CLOUDY    18  10  73 NW8       30.25F WCI   7
BRAINERD       CLEAR     12  -4  48 NW12      30.14R WCI  -2
HIBBING        CLEAR      5  -5  63 NW16      30.09R WCI -14
ALEXANDRIA     CLEAR     11  -2  56 NW12      30.17R WCI  -3
SAINT CLOUD    CLEAR     14  -1  51 NW12G23   30.14R WCI   0
MINNEAPOLIS    PTCLDY    15  -1  49 NW14G25   30.12R WCI   0
$$

  *****  WEATHER ACROSS SOUTH DAKOTA  *****

CITY           SKY/WX    TMP DP  RH WIND       PRES   REMARKS
SIOUX FALLS    CLOUDY    23  12  62 NW12      30.22R WCI  12
BROOKINGS      CLOUDY    20  11  68 NW14      30.18S WCI   7
WATERTOWN      CLOUDY    21  11  65 NW7       30.17S WCI  12
HURON          CLOUDY    29  14  53 W3        30.20F
SISSETON         N/A     19   9  65 N13       30.22S WCI   6
ABERDEEN       CLOUDY    29  13  51 E10       30.19F WCI  20
MITCHELL       CLOUDY    30  14  51 N3        30.23F
PIERRE         CLOUDY    34  17  50 S6        30.16S
MOBRIDGE       CLOUDY    38  18  44 CALM      30.10F
RAPID CITY     CLOUDY    52  29  41 N15       30.10F
$$

  *****  SOME WEATHER IN NEARBY STATES *****

CITY           SKY/WX    TMP DP  RH WIND       PRES   REMARKS
GLASGOW MT     SUNNY     49  34  56 W8        30.07F
GREAT FALLS MT SUNNY     61  26  26 SW18      30.14F
CHEYENNE WY    SUNNY     46  23  40 NW20G30   30.27S
SCOTTSBLUFF NE SUNNY     51  33  50 NW10      30.20F
OMAHA NE       PTCLDY    23  11  60 NW13      30.26R WCI  11
DES MOINES IA  PTCLDY    18   5  57 NW21      30.17R WCI   1
DAVENPORT IA   PTCLDY    14   3  61 NW21G31   30.02R WCI  -4
CHICAGO IL     CLOUDY    17   7  64 NW14      29.90R WCI   3
EAU CLAIRE WI  CLEAR     14  -3  47 NW10      30.03R WCI   1
LA CROSSE WI   CLEAR     14   1  56 NW16      30.04R WCI  -2
$$

  *****  SOME NATIONAL WEATHER *****

CITY           SKY/WX    TMP DP  RH WIND       PRES   REMARKS
LA GUARDIA NY  MOCLDY    34  23  64 E7        29.60R
RALEIGH NC     CLOUDY    37  21  52 NW9G17    29.73R
ATLANTA GA     MOCLDY    32  19  58 W10       29.93R WCI  24
NEW ORLEANS LA CLEAR     56  19  23 NW15G25   30.10R
OKLAHOMA CITY  MOSUNNY   49  21  33 N17       30.28R
ALBUQUERQUE NM SUNNY     61  20  20 NE3       30.31F
SALT LAKE CITY SUNNY     39  29  67 W5        30.51F HAZE
LOS ANGELES CA MOSUNNY   79  30  16 W12       30.06S
BOISE ID       SUNNY     44  32  62 SW6       30.48F
SEATTLE WA     PTSUNNY   63  43  48 SW6       30.13S
$$

*** WEATHER ACROSS MANITOBA...SASKATCHEWAN AND ONTARIO ***
                ***ONTARIO***

CITY           SKY/WX    TMP DP  RH WIND       PRES   REMARKS
GERALDTON      FLURRIES   0  -8  71 NW15G23   29.96R WCI -20
THUNDER BAY    MOCLDY     3  -8  60 N12G23    30.07R WCI -13
SIOUX LOOKOUT  FLURRIES   0  -9  65 NW13G20   30.13R WCI -18
TORONTO        CLOUDY    34  25  69 SW9       29.49R
BIG TROUT LK   CLEAR    -13 -20  70 NW7       30.22R WCI -29
PICKLE LAKE    CRYSTALS  -9 -18  64 NW5       30.12R WCI -21
DRYDEN         PTCLDY     0  -8  71 N9G17     30.13R WCI -16
KENORA         NOT AVBL
$$
                *** MANITOBA***

CITY           SKY/WX    TMP DP  RH WIND       PRES   REMARKS
BRANDON        CLOUDY    10   5  79 E9        30.25F WCI  -2
DAUPHIN        MOCLDY     5   1  85 E6        30.29F WCI  -6
ISLAND LAKE    NOT AVBL
PILOT MOUND      N/A      7   1  78 NE8         N/A  WCI  -6
THE PAS        MOCLDY    -4 -13  65 E5        30.31R WCI -15
THOMPSON       PTCLDY    -9 -17  70 E3        30.34F
WINNIPEG       PTCLDY     1  -8  66 NE8       30.33R WCI -12
LYNN LAKE      FLURRIES  -8 -13  77 SE7       30.24F WCI -22
CHURCHILL      CRYSTALS -26 -33  68 NW10      30.40F WCI -48
GILLAM         CLEAR    -13 -22  64 W7        30.36F WCI -29
$$
                ***SASKATCHEWAN***

CITY           SKY/WX    TMP DP  RH WIND       PRES   REMARKS
ESTEVAN        FLURRIES  32  23  69 E6        30.11F
KINDERSLEY     NOT AVBL
LLOYDMINSTER   MOCLDY    39  30  70 W10       29.93F
PRINCE ALBERT  LGT SNOW  16  12  86 E10       30.09F DRFTSNOWWCI   3
REGINA         MOCLDY    30  25  80 SE12      30.06F WCI  21
YORKTON        CLOUDY    16  10  79 E9        30.15F WCI   4
N. BATTLEFORD  PTCLDY    32  32 100 SE9       30.00F FOG     WCI  24
LA RONGE       LGT SNOW  10   7  85 E10       30.11S VSB 1   WCI  -3
SASKATOON      MOCLDY    30  27  86 SE10      30.03F WCI  21
SWIFT CURRENT  CLEAR     50  36  57 NW16G23   30.00F
$$
NOTE: THESE ARE AUTOMATED STATIONS WITH LIMITED QUALITY CONTROL
      "FAIR" INDICATES FEW OR NO CLOUDS BELOW 12,000 FEET WITH NO
      SIGNIFICANT WEATHER AND/OR OBSTRUCTIONS TO VISIBILITY.
      SKY/WX - SKY CONDITION AND SIGNIFICANT WEATHER.
      TMP - AIR TEMPERATURE.    DP   - DEWPOINT TEMPERATURE.
      RH  - RELATIVE HUMIDITY.  PRES - PRESSURE.
      HX  - HEAT INDEX.         WCI  - WIND CHILL INDEX.
$




USA.gov is the U.S. government's official web portal to all federal, state and local government web resources and services.